| time (UTC) | temp F | wind direction | speed knots | gust knots | rain 1hr in | rain 24hr in | rain mn in | humidity % | barometer mb |
| 20260506121056 | 74 | 180 | 4.3 | 13.0 | 0.00 | 0.00 | 0.00 | 41 | 1010.5 |
| 20260506120557 | 72 | 68 | 2.6 | 7.8 | 0.00 | 0.00 | 0.00 | 44 | 1010.5 |
| 20260506120055 | 74 | 180 | 4.3 | 12.2 | 0.00 | 0.00 | 0.00 | 41 | 1010.4 |
| 20260506115556 | 74 | 180 | 4.3 | 12.2 | 0.00 | 0.00 | 0.00 | 41 | 1010.4 |
| 20260506115056 | 74 | 180 | 4.3 | 12.2 | 0.00 | 0.00 | 0.00 | 40 | 1010.5 |
| 20260506114555 | 74 | 135 | 2.6 | 7.0 | 0.00 | 0.00 | 0.00 | 41 | 1010.5 |
| 20260506114055 | 72 | 135 | 2.6 | 7.8 | 0.00 | 0.00 | 0.00 | 46 | 1010.7 |
| 20260506113556 | 72 | 135 | 2.6 | 7.8 | 0.00 | 0.00 | 0.00 | 46 | 1010.7 |
| 20260506113055 | 71 | 180 | 4.3 | 13.0 | 0.00 | 0.00 | 0.00 | 47 | 1010.8 |
| 20260506112555 | 71 | 180 | 5.2 | 13.0 | 0.00 | 0.00 | 0.00 | 46 | 1010.9 |
| 20260506112056 | 72 | 135 | 3.5 | 9.6 | 0.00 | 0.00 | 0.00 | 45 | 1011.0 |
| 20260506111556 | 72 | 135 | 3.5 | 9.6 | 0.00 | 0.00 | 0.00 | 45 | 1011.0 |
| 20260506111056 | 71 | 225 | 3.5 | 11.3 | 0.00 | 0.00 | 0.00 | 45 | 1010.9 |
| 20260506110555 | 71 | 135 | 2.6 | 9.6 | 0.00 | 0.00 | 0.00 | 44 | 1011.2 |
| 20260506110055 | 70 | 135 | 3.5 | 10.4 | 0.00 | 0.00 | 0.00 | 49 | 1011.4 |
| 20260506105555 | 70 | 135 | 3.5 | 10.4 | 0.00 | 0.00 | 0.00 | 49 | 1011.4 |
| 20260506105056 | 70 | 180 | 1.7 | 4.3 | 0.00 | 0.00 | 0.00 | 49 | 1011.4 |
| 20260506104555 | 70 | 180 | 3.5 | 7.8 | 0.00 | 0.00 | 0.00 | 49 | 1011.5 |
| 20260506104056 | 70 | 135 | 2.6 | 8.7 | 0.00 | 0.00 | 0.00 | 49 | 1011.4 |
| 20260506103556 | 70 | 135 | 2.6 | 8.7 | 0.00 | 0.00 | 0.00 | 49 | 1011.4 |
| 20260506103055 | 70 | 90 | 3.5 | 10.4 | 0.00 | 0.00 | 0.00 | 49 | 1011.6 |
| 20260506102555 | 70 | 180 | 3.5 | 9.6 | 0.00 | 0.00 | 0.00 | 49 | 1011.5 |
| 20260506102055 | 70 | 225 | 1.7 | 7.0 | 0.00 | 0.00 | 0.00 | 50 | 1011.6 |
| 20260506101555 | 70 | 225 | 1.7 | 7.0 | 0.00 | 0.00 | 0.00 | 50 | 1011.6 |
| 20260506101055 | 69 | 180 | 3.5 | 10.4 | 0.00 | 0.00 | 0.00 | 48 | 1011.7 |
| 20260506100555 | 69 | 135 | 1.7 | 7.0 | 0.00 | 0.00 | 0.00 | 46 | 1011.6 |
| 20260506100055 | 71 | 180 | 3.5 | 8.7 | 0.00 | 0.00 | 0.00 | 44 | 1011.6 |
| 20260506095555 | 71 | 180 | 3.5 | 8.7 | 0.00 | 0.00 | 0.00 | 44 | 1011.6 |
| 20260506095055 | 71 | 225 | 5.2 | 13.9 | 0.00 | 0.00 | 0.00 | 43 | 1011.5 |
| 20260506094555 | 72 | 135 | 3.5 | 9.6 | 0.00 | 0.00 | 0.00 | 42 | 1011.4 |
| 20260506094055 | 74 | 180 | 3.5 | 9.6 | 0.00 | 0.00 | 0.00 | 37 | 1011.5 |
| 20260506093556 | 74 | 180 | 3.5 | 9.6 | 0.00 | 0.00 | 0.00 | 37 | 1011.5 |
| 20260506093055 | 74 | 180 | 4.3 | 13.0 | 0.00 | 0.00 | 0.00 | 36 | 1011.4 |
| 20260506092555 | 74 | 135 | 4.3 | 13.0 | 0.00 | 0.00 | 0.00 | 35 | 1011.2 |
| 20260506092055 | 74 | 180 | 3.5 | 9.6 | 0.00 | 0.00 | 0.00 | 35 | 1011.1 |
| 20260506091555 | 74 | 180 | 3.5 | 9.6 | 0.00 | 0.00 | 0.00 | 35 | 1011.1 |
| 20260506091055 | 75 | 158 | 4.3 | 12.2 | 0.00 | 0.00 | 0.00 | 33 | 1011.1 |
| 20260506090555 | 74 | 360 | 0.9 | 3.5 | 0.00 | 0.00 | 0.00 | 34 | 1011.2 |
| 20260506090055 | 74 | 158 | 3.5 | 10.4 | 0.00 | 0.00 | 0.00 | 35 | 1011.4 |
| 20260506085555 | 74 | 158 | 3.5 | 10.4 | 0.00 | 0.00 | 0.00 | 35 | 1011.4 |
| 20260506085056 | 75 | 180 | 2.6 | 8.7 | 0.00 | 0.00 | 0.00 | 35 | 1011.2 |
| 20260506084556 | 74 | 180 | 4.3 | 11.3 | 0.00 | 0.00 | 0.00 | 36 | 1011.3 |
| 20260506084056 | 74 | 135 | 2.6 | 7.0 | 0.00 | 0.00 | 0.00 | 35 | 1011.3 |
| 20260506083555 | 74 | 135 | 2.6 | 7.0 | 0.00 | 0.00 | 0.00 | 35 | 1011.3 |
| 20260506083055 | 73 | 135 | 1.7 | 4.3 | 0.00 | 0.00 | 0.00 | 36 | 1011.3 |
| 20260506082555 | 74 | 270 | 3.5 | 10.4 | 0.00 | 0.00 | 0.00 | 40 | 1011.3 |
| 20260506082055 | 74 | 90 | 1.7 | 3.5 | 0.00 | 0.00 | 0.00 | 40 | 1011.4 |
| 20260506081556 | 74 | 90 | 1.7 | 3.5 | 0.00 | 0.00 | 0.00 | 40 | 1011.4 |
| 20260506081055 | 74 | 180 | 1.7 | 5.2 | 0.00 | 0.00 | 0.00 | 40 | 1011.4 |
| 20260506080555 | 73 | 180 | 0.9 | 3.5 | 0.00 | 0.00 | 0.00 | 41 | 1011.4 |
| 20260506073055 | 71 | 113 | 0.9 | 2.6 | 0.00 | 0.00 | 0.00 | 48 | 1011.6 |
| 20260506072555 | 71 | 90 | 0.9 | 3.5 | 0.00 | 0.00 | 0.00 | 48 | 1011.4 |
| 20260506072055 | 70 | 180 | 1.7 | 3.5 | 0.00 | 0.00 | 0.00 | 48 | 1011.4 |
| 20260506071555 | 70 | 180 | 1.7 | 3.5 | 0.00 | 0.00 | 0.00 | 48 | 1011.4 |
| 20260506071056 | 70 | 135 | 0.9 | 3.5 | 0.00 | 0.00 | 0.00 | 49 | 1011.4 |
| 20260506070555 | 69 | 45 | 0.9 | 2.6 | 0.00 | 0.00 | 0.00 | 50 | 1011.5 |
| 20260506062055 | 64 | 360 | 0.9 | 1.7 | 0.00 | 0.00 | 0.00 | 53 | 1011.7 |
| 20260506061555 | 64 | 360 | 0.9 | 1.7 | 0.00 | 0.00 | 0.00 | 53 | 1011.7 |
| 20260506061055 | 62 | 23 | 1.7 | 5.2 | 0.00 | 0.00 | 0.00 | 57 | 1011.7 |
| 20260506060555 | 62 | 360 | 1.7 | 4.3 | 0.00 | 0.00 | 0.00 | 58 | 1011.5 |
| 20260506051055 | 65 | 360 | 0.0 | 0.9 | 0.00 | 0.00 | 0.00 | 61 | 1011.5 |
| 20260506050555 | 63 | 135 | 0.0 | 0.9 | 0.00 | 0.00 | 0.00 | 67 | 1011.5 |
| 20260506045055 | 60 | 270 | 0.0 | 1.7 | 0.00 | 0.00 | 0.00 | 79 | 1011.5 |
| 20260506044555 | 58 | 360 | 0.0 | 0.0 | 0.00 | 0.00 | 0.00 | 84 | 1011.5 |
| 20260506044055 | 55 | 270 | 0.0 | 0.0 | 0.00 | 0.00 | 0.00 | 88 | 1011.4 |
| 20260506043555 | 55 | 270 | 0.0 | 0.0 | 0.00 | 0.00 | 0.00 | 88 | 1011.4 |
| 20260506043055 | 52 | 45 | 0.0 | 0.0 | 0.00 | 0.00 | 0.00 | 91 | 1011.3 |
| 20260506042554 | 50 | 270 | 0.0 | 0.0 | 0.00 | 0.00 | 0.00 | 91 | 1011.4 |
| 20260506042054 | 48 | 270 | 0.0 | 0.0 | 0.00 | 0.00 | 0.00 | 90 | 1011.2 |
| 20260506041555 | 47 | 225 | 0.9 | 1.7 | 0.00 | 0.00 | 0.00 | 90 | 1011.2 |
| 20260506041054 | 47 | 360 | 0.0 | 0.9 | 0.00 | 0.00 | 0.00 | 90 | 1011.4 |
| 20260506040555 | 47 | 360 | 0.0 | 0.9 | 0.00 | 0.00 | 0.00 | 90 | 1011.4 |
| 20260506040055 | 48 | 225 | 0.9 | 2.6 | 0.00 | 0.00 | 0.00 | 90 | 1011.4 |
| 20260506035555 | 48 | 225 | 0.9 | 2.6 | 0.00 | 0.00 | 0.00 | 90 | 1011.4 |
| 20260506035055 | 47 | 270 | 0.0 | 1.7 | 0.00 | 0.00 | 0.00 | 90 | 1011.2 |
| 20260506034554 | 47 | 225 | 0.9 | 1.7 | 0.00 | 0.00 | 0.00 | 90 | 1011.1 |
| 20260506034055 | 47 | 225 | 0.0 | 0.0 | 0.00 | 0.00 | 0.00 | 90 | 1011.1 |
| 20260506033555 | 47 | 225 | 0.0 | 0.0 | 0.00 | 0.00 | 0.00 | 90 | 1011.1 |
| 20260506033054 | 47 | 180 | 0.9 | 1.7 | 0.00 | 0.00 | 0.00 | 90 | 1011.2 |
| 20260506032554 | 48 | 180 | 0.0 | 0.0 | 0.00 | 0.00 | 0.00 | 90 | 1011.0 |
| 20260506032055 | 48 | 225 | 0.0 | 0.0 | 0.00 | 0.00 | 0.00 | 90 | 1011.2 |
| 20260506031554 | 48 | 225 | 0.0 | 0.0 | 0.00 | 0.00 | 0.00 | 90 | 1011.2 |
| 20260506031055 | 48 | 315 | 0.0 | 1.7 | 0.00 | 0.00 | 0.00 | 90 | 1011.2 |
| 20260506030554 | 48 | 315 | 0.0 | 1.7 | 0.00 | 0.00 | 0.00 | 90 | 1011.2 |
| 20260506030055 | 47 | 315 | 0.0 | 0.9 | 0.00 | 0.00 | 0.00 | 88 | 1011.2 |
| 20260506025555 | 47 | 315 | 0.0 | 0.9 | 0.00 | 0.00 | 0.00 | 88 | 1011.2 |
| 20260506025055 | 47 | 360 | 0.9 | 1.7 | 0.00 | 0.00 | 0.00 | 88 | 1011.1 |
| 20260506024554 | 48 | 180 | 0.0 | 0.0 | 0.00 | 0.00 | 0.00 | 88 | 1010.9 |
| 20260506024054 | 48 | 180 | 0.0 | 0.0 | 0.00 | 0.00 | 0.00 | 88 | 1011.0 |
| 20260506023555 | 48 | 180 | 0.0 | 0.0 | 0.00 | 0.00 | 0.00 | 88 | 1011.0 |
| 20260506023054 | 48 | 315 | 0.0 | 0.0 | 0.00 | 0.00 | 0.00 | 88 | 1011.1 |
| 20260506022554 | 48 | 360 | 0.9 | 1.7 | 0.00 | 0.00 | 0.00 | 87 | 1010.8 |
| 20260506022054 | 48 | 180 | 0.0 | 0.0 | 0.00 | 0.00 | 0.00 | 87 | 1010.9 |
| 20260506021554 | 48 | 180 | 0.0 | 0.0 | 0.00 | 0.00 | 0.00 | 87 | 1010.9 |
| 20260506021054 | 49 | 180 | 0.0 | 0.9 | 0.00 | 0.00 | 0.00 | 87 | 1010.7 |
| 20260506020554 | 49 | 180 | 0.0 | 0.9 | 0.00 | 0.00 | 0.00 | 87 | 1010.7 |
| 20260506020054 | 49 | 225 | 0.0 | 0.0 | 0.00 | 0.00 | 0.00 | 87 | 1010.8 |
| 20260506015554 | 49 | 225 | 0.0 | 0.0 | 0.00 | 0.00 | 0.00 | 87 | 1010.8 |
| 20260506015054 | 49 | 225 | 0.0 | 0.9 | 0.00 | 0.00 | 0.00 | 86 | 1010.8 |
| 20260506014554 | 49 | 45 | 0.9 | 1.7 | 0.00 | 0.00 | 0.00 | 86 | 1010.7 |
| 20260506014055 | 49 | 360 | 0.9 | 2.6 | 0.00 | 0.00 | 0.00 | 86 | 1010.6 |
| 20260506013554 | 49 | 360 | 0.9 | 2.6 | 0.00 | 0.00 | 0.00 | 86 | 1010.6 |
| 20260506013054 | 50 | 225 | 0.9 | 1.7 | 0.00 | 0.00 | 0.00 | 86 | 1010.6 |
| 20260506012554 | 50 | 225 | 0.9 | 1.7 | 0.00 | 0.00 | 0.00 | 86 | 1010.6 |
| 20260506012054 | 49 | 270 | 0.0 | 0.9 | 0.00 | 0.00 | 0.00 | 85 | 1010.3 |
| 20260506011554 | 49 | 270 | 0.0 | 0.9 | 0.00 | 0.00 | 0.00 | 85 | 1010.3 |
| 20260506011054 | 50 | 225 | 0.0 | 0.0 | 0.00 | 0.00 | 0.00 | 85 | 1010.5 |
| 20260506010555 | 49 | 225 | 0.0 | 0.9 | 0.00 | 0.00 | 0.00 | 84 | 1010.4 |
| 20260506010054 | 50 | 360 | 0.0 | 1.7 | 0.00 | 0.00 | 0.00 | 84 | 1010.4 |
| 20260506005554 | 50 | 360 | 0.0 | 1.7 | 0.00 | 0.00 | 0.00 | 84 | 1010.4 |
| 20260506005054 | 50 | 225 | 0.0 | 1.7 | 0.00 | 0.00 | 0.00 | 84 | 1010.4 |
| 20260506004555 | 50 | 225 | 0.0 | 1.7 | 0.00 | 0.00 | 0.00 | 84 | 1010.4 |
| 20260506004054 | 50 | 45 | 0.9 | 1.7 | 0.00 | 0.00 | 0.00 | 84 | 1010.4 |
| 20260506003554 | 50 | 45 | 0.9 | 1.7 | 0.00 | 0.00 | 0.00 | 84 | 1010.4 |
| 20260506003055 | 50 | 225 | 0.9 | 1.7 | 0.00 | 0.00 | 0.00 | 83 | 1010.2 |
| 20260506002554 | 50 | 225 | 0.9 | 1.7 | 0.00 | 0.00 | 0.00 | 83 | 1010.2 |
| 20260506002055 | 51 | 225 | 0.0 | 1.7 | 0.00 | 0.00 | 0.00 | 83 | 1010.4 |
| 20260506001554 | 51 | 225 | 0.0 | 1.7 | 0.00 | 0.00 | 0.00 | 83 | 1010.4 |
| 20260506001054 | 51 | 270 | 0.9 | 1.7 | 0.00 | 0.00 | 0.00 | 83 | 1010.4 |
| 20260506000554 | 51 | 225 | 0.9 | 1.7 | 0.00 | 0.00 | 0.00 | 82 | 1010.4 |
| 20260506000054 | 51 | 203 | 0.9 | 1.7 | 0.00 | 0.00 | 0.00 | 81 | 1010.4 |
| 20260505235554 | 51 | 203 | 0.9 | 1.7 | 0.00 | 0.00 | 0.00 | 81 | 1010.4 |
| 20260505235054 | 51 | 315 | 0.0 | 0.0 | 0.00 | 0.00 | 0.00 | 81 | 1010.3 |
| 20260505234554 | 52 | 180 | 0.0 | 1.7 | 0.00 | 0.00 | 0.00 | 82 | 1010.5 |
| 20260505234054 | 52 | 270 | 0.9 | 1.7 | 0.00 | 0.00 | 0.00 | 81 | 1010.5 |
| 20260505204322 | 58 | 135 | 1.7 | 4.3 | 0.00 | 0.00 | 0.00 | 66 | 1010.9 |
| 20260505203822 | 59 | 315 | 0.9 | 1.7 | 0.00 | 0.00 | 0.00 | 65 | 1010.7 |
| 20260505203322 | 59 | 315 | 0.9 | 2.6 | 0.00 | 0.00 | 0.00 | 65 | 1010.8 |
| 20260505202822 | 59 | 315 | 0.9 | 1.7 | 0.00 | 0.00 | 0.00 | 64 | 1011.0 |
| 20260505202326 | 60 | 360 | 0.9 | 1.7 | 0.00 | 0.00 | 0.00 | 64 | 1010.9 |
| 20260505201822 | 60 | 135 | 0.9 | 2.6 | 0.00 | 0.00 | 0.00 | 64 | 1010.9 |
| 20260505201322 | 60 | 225 | 2.6 | 7.0 | 0.00 | 0.00 | 0.00 | 63 | 1010.8 |
| 20260505200822 | 60 | 180 | 1.7 | 5.2 | 0.00 | 0.00 | 0.00 | 63 | 1010.8 |
| 20260505200322 | 60 | 135 | 0.9 | 3.5 | 0.00 | 0.00 | 0.00 | 63 | 1010.8 |
| 20260505195822 | 60 | 180 | 1.7 | 3.5 | 0.00 | 0.00 | 0.00 | 63 | 1010.8 |
| 20260505195322 | 60 | 45 | 0.9 | 3.5 | 0.00 | 0.00 | 0.00 | 63 | 1010.7 |
| 20260505194944 | 60 | 180 | 1.7 | 4.3 | 0.00 | 0.00 | 0.00 | 63 | 1010.7 |
| 20260505194746 | 60 | 180 | 1.7 | 4.3 | 0.00 | 0.00 | 0.00 | 63 | 1010.7 |
| 20260505194410 | 60 | 135 | 2.6 | 9.6 | 0.00 | 0.00 | 0.00 | 63 | 1010.7 |
| 20260505194216 | 60 | 135 | 2.6 | 9.6 | 0.00 | 0.00 | 0.00 | 63 | 1010.7 |
| 20260505193720 | 60 | 180 | 0.9 | 3.5 | 0.00 | 0.00 | 0.00 | 62 | 1010.8 |
| 20260505193231 | 60 | 203 | 1.7 | 7.0 | 0.00 | 0.00 | 0.00 | 62 | 1010.7 |
| 20260505192711 | 61 | 180 | 1.7 | 4.3 | 0.00 | 0.00 | 0.00 | 62 | 1010.7 |
| 20260505192211 | 61 | 203 | 1.7 | 6.1 | 0.00 | 0.00 | 0.00 | 61 | 1010.7 |
| 20260505191711 | 61 | 180 | 3.5 | 8.7 | 0.00 | 0.00 | 0.00 | 61 | 1010.8 |
| 20260505191211 | 61 | 180 | 4.3 | 12.2 | 0.00 | 0.00 | 0.00 | 61 | 1010.7 |
| 20260505190711 | 61 | 158 | 2.6 | 6.1 | 0.00 | 0.00 | 0.00 | 61 | 1010.8 |
| 20260505190211 | 61 | 135 | 2.6 | 7.8 | 0.00 | 0.00 | 0.00 | 61 | 1010.7 |
| 20260505185836 | 61 | 180 | 1.7 | 6.1 | 0.00 | 0.00 | 0.00 | 61 | 1010.8 |
| 20260505180643 | 63 | 180 | 3.5 | 9.6 | 0.00 | 0.00 | 0.00 | 57 | 1010.6 |
| 20260505180213 | 63 | 225 | 2.6 | 8.7 | 0.00 | 0.00 | 0.00 | 56 | 1010.7 |
| 20260505175713 | 63 | 225 | 2.6 | 7.0 | 0.00 | 0.00 | 0.00 | 56 | 1010.7 |
| 20260505175213 | 63 | 180 | 1.7 | 7.0 | 0.00 | 0.00 | 0.00 | 55 | 1010.6 |
| 20260505174713 | 64 | 180 | 3.5 | 10.4 | 0.00 | 0.00 | 0.00 | 51 | 1010.7 |
| 20260505174213 | 64 | 225 | 3.5 | 9.6 | 0.00 | 0.00 | 0.00 | 51 | 1010.7 |
| 20260505173714 | 64 | 180 | 3.5 | 10.4 | 0.00 | 0.00 | 0.00 | 51 | 1010.8 |
| 20260505173214 | 64 | 225 | 4.3 | 13.0 | 0.00 | 0.00 | 0.00 | 51 | 1010.7 |
| 20260505172713 | 64 | 180 | 2.6 | 7.8 | 0.00 | 0.00 | 0.00 | 50 | 1010.7 |
| 20260505172213 | 65 | 135 | 2.6 | 9.6 | 0.00 | 0.00 | 0.00 | 50 | 1010.8 |
| 20260505171713 | 65 | 135 | 3.5 | 10.4 | 0.00 | 0.00 | 0.00 | 50 | 1010.7 |
| 20260505171213 | 65 | 180 | 3.5 | 9.6 | 0.00 | 0.00 | 0.00 | 50 | 1010.7 |
| 20260505170713 | 65 | 180 | 5.2 | 13.9 | 0.00 | 0.00 | 0.00 | 50 | 1010.9 |
| 20260505170213 | 65 | 135 | 3.5 | 8.7 | 0.00 | 0.00 | 0.00 | 49 | 1010.8 |
| 20260505165713 | 66 | 225 | 2.6 | 8.7 | 0.00 | 0.00 | 0.00 | 48 | 1010.8 |
| 20260505165213 | 66 | 180 | 3.5 | 10.4 | 0.00 | 0.00 | 0.00 | 47 | 1010.9 |
| 20260505164714 | 67 | 135 | 4.3 | 13.0 | 0.00 | 0.00 | 0.00 | 46 | 1010.9 |
| 20260505164213 | 67 | 180 | 4.3 | 13.9 | 0.00 | 0.00 | 0.00 | 46 | 1010.9 |
| 20260505163713 | 67 | 180 | 3.5 | 10.4 | 0.00 | 0.00 | 0.00 | 45 | 1010.8 |
| 20260505163213 | 68 | 180 | 3.5 | 9.6 | 0.00 | 0.00 | 0.00 | 45 | 1010.8 |
| 20260505162713 | 68 | 180 | 2.6 | 7.8 | 0.00 | 0.00 | 0.00 | 44 | 1010.9 |
| 20260505162213 | 69 | 90 | 2.6 | 7.0 | 0.00 | 0.00 | 0.00 | 43 | 1010.9 |
| 20260505161713 | 69 | 135 | 3.5 | 11.3 | 0.00 | 0.00 | 0.00 | 44 | 1010.9 |
| 20260505161213 | 68 | 180 | 5.2 | 19.1 | 0.00 | 0.00 | 0.00 | 44 | 1011.0 |
| 20260505160713 | 68 | 180 | 4.3 | 12.2 | 0.00 | 0.00 | 0.00 | 45 | 1011.1 |
| 20260505153213 | 68 | 203 | 3.5 | 11.3 | 0.00 | 0.00 | 0.00 | 44 | 1011.3 |
| 20260505152712 | 68 | 180 | 3.5 | 9.6 | 0.00 | 0.00 | 0.00 | 44 | 1011.2 |
| 20260505152213 | 68 | 180 | 4.3 | 13.0 | 0.00 | 0.00 | 0.00 | 44 | 1011.2 |
| 20260505151713 | 68 | 225 | 3.5 | 11.3 | 0.00 | 0.00 | 0.00 | 44 | 1011.3 |
| 20260505151213 | 69 | 315 | 2.6 | 7.8 | 0.00 | 0.00 | 0.00 | 44 | 1011.2 |
| 20260505150713 | 69 | 180 | 2.6 | 8.7 | 0.00 | 0.00 | 0.00 | 44 | 1011.3 |
| 20260505150213 | 69 | 225 | 2.6 | 7.8 | 0.00 | 0.00 | 0.00 | 43 | 1011.3 |
| 20260505140213 | 71 | 135 | 5.2 | 20.0 | 0.00 | 0.00 | 0.00 | 41 | 1011.5 |
| 20260505130212 | 73 | 135 | 4.3 | 14.8 | 0.00 | 0.00 | 0.00 | 36 | 1011.4 |
| 20260505124712 | 74 | 225 | 3.5 | 13.0 | 0.00 | 0.00 | 0.00 | 34 | 1011.5 |
| 20260505124213 | 75 | 135 | 6.1 | 20.9 | 0.00 | 0.00 | 0.00 | 32 | 1011.3 |
| 20260505123712 | 76 | 180 | 5.2 | 15.6 | 0.00 | 0.00 | 0.00 | 31 | 1011.2 |
| 20260505123213 | 77 | 135 | 6.1 | 15.6 | 0.00 | 0.00 | 0.00 | 31 | 1011.2 |
| 20260505122712 | 78 | 135 | 3.5 | 11.3 | 0.00 | 0.00 | 0.00 | 31 | 1011.2 |
| 20260505122213 | 79 | 180 | 2.6 | 8.7 | 0.00 | 0.00 | 0.00 | 30 | 1011.2 |
| 20260505121713 | 78 | 135 | 6.1 | 18.2 | 0.00 | 0.00 | 0.00 | 30 | 1011.6 |